Flag for Canada Weather past 2 weeks in Laval, Quebec, Canada

Now
79 °F

Scattered clouds.


Feels Like: 81 °F
Forecast: 67 / 86 °F
Wind: 7 mph from Southwest

Location: Montreal / Mirabel

Current Time: Jul 22, 2014 at 12:05:01 PM

Latest Report: Jul 22, 2014 at 11:00 AM


Visibility: 10 mi

Pressure: 30.07 "Hg

Humidity: 70%

Dew point: 68 °F

Location of LavalLocation

Historic Weather in Laval — Graph

°F

Laval temperature yesterday

Maximum temperature yesterday: 81 °F (at 1:00 PM)
Minimum temperature yesterday: 64 °F (at 3:00 AM)
Average temperature yesterday: 73 °F

Past Weeks' High & Low Weather Summary

 TemperatureHumidityPressure
High82 °F (Jul 8, 5:00 PM)100% (Jul 7, 12:00 PM)30.29 "Hg (Jul 7, 12:00 PM)
Low48 °F (Jul 11, 5:00 AM)41% (Jul 11, 3:00 PM)29.37 "Hg (Jul 8, 10:00 PM)
Average67 °F79%29.96 "Hg
* Reported Jul 7 10:00 AM — Jul 22 10:00 AM, Laval, Weather by CustomWeather, © 2014

Note: Actual official high and low records may vary slightly from our data, if they occured in-between our weather recording intervals... More about our weather records

Advertising

Laval weather history for previous 24 hours

 ConditionsComfort  
Time TempWeatherWind HumidityBarometerVisibility
10:00 AM
Jul 22
75 °FPassing clouds.7 mph74%30.07 "Hg10 mi
9:00 AM72 °FPassing clouds.6 mph88%30.09 "Hg8 mi
8:00 AM70 °FPassing clouds.9 mph88%30.09 "Hg8 mi
7:00 AM68 °FFog.5 mph88%30.07 "Hg6 mi
6:00 AM66 °FPassing clouds.2 mph88%30.07 "Hg25 mi
5:00 AM66 °FPassing clouds.2 mph94%30.07 "Hg15 mi
4:00 AM68 °FPassing clouds.5 mph88%30.08 "Hg25 mi
3:00 AM68 °FLight fog.3 mph88%30.08 "Hg25 mi
2:00 AM70 °FPassing clouds.2 mph88%30.08 "Hg25 mi
1:00 AM68 °FPassing clouds.2 mph94%30.09 "Hg25 mi
12:00 AM66 °FPassing clouds.No wind100%30.09 "Hg25 mi
11:00 PM
Jul 21
68 °FPassing clouds.No wind94%30.09 "Hg25 mi
10:00 PM70 °FPassing clouds.No wind88%30.10 "Hg25 mi
9:00 PM72 °FScattered clouds.3 mph88%30.09 "Hg25 mi
8:00 PM77 °FPartly sunny.5 mph74%30.08 "Hg25 mi
7:00 PM79 °FBroken clouds.6 mph65%30.08 "Hg45 mi
6:00 PM79 °FMore clouds than sun.5 mph65%30.08 "Hg45 mi
5:00 PM81 °FPartly sunny.5 mph58%30.09 "Hg45 mi
4:00 PM81 °FBroken clouds.6 mph58%30.10 "Hg45 mi
3:00 PM81 °FPartly sunny.6 mph54%30.11 "Hg45 mi
2:00 PM81 °FPartly sunny.5 mph58%30.12 "Hg45 mi
1:00 PM81 °FScattered clouds.7 mph58%30.13 "Hg45 mi
12:00 PM79 °FScattered clouds.5 mph61%30.15 "Hg25 mi
Weather by CustomWeather, © 2014

See weather overviewHow to use our weather pages